THOR ABLESTAR DEB, 1942

Orbit data source: Space-Track

THOR ABLESTAR DEB, 1942 is space debris in LEO originally from a launch on Thu, 29 Jun 1961 UTC launched from the Air Force Eastern Test Range (AFETR). Debris objects in space refer to the collection of defunct objects orbiting the Earth. Examples of debris include non-operational satellites, rocket bodies, and fragments generated from explosions, collisions, or faulty payload assembly.

Loading next visibility...
Identifier
1942, 1961-015HS
Orbit
LEO
Country
Flag of USUS
Related business
Manufacturer
Unknown
Mission
Spacecraft
Bus & Motor
Unknown
Mass
Unknown
Launch date (UTC)
1961-06-29 (64 years ago)
Launch vehicle
Unknown
Launch site
Air Force Eastern Test Range (AFETR)
Object type
Payload
Rocket body
Debris
Shape & HBR
Unknown
Radar Cross Section
Small (<0.1 m²)

Expand to show TLE details & history
Last TLE update: 12 hours ago

TLE from 12 hours ago
0 THOR ABLESTAR DEB
1 01942U 61015HS  25258.98477796  .00000391  00000-0  93836-3 0  9993
2 01942  67.2678 215.8273 0331749  79.0919 343.2226 13.13067488 80814
Epoch: 2025-09-15T23:38Z
TLE epoch observation values (Epoch: 2025-09-15T23:38:04.815Z)
Latitude
54.01917°
Longitude
-98.84136°
Altitude
979.022 km
Speed
7.484 km/s
True Right ascension
16h 43m 26s
True Declination
53° 51' 38"
Sunlit
Object was in daylight at epoch
Visualization orbit readout
Latitude
Unknown
Longitude
Unknown
Altitude
Unknown
Speed
Unknown
Apparent Right ascension
Unknown
Apparent Declination
Unknown
Sunlit
N/A
Visualization observer readout
Local Sidereal Time
04:25:13
Azimuth
Unknown
Elevation
Unknown
Doppler factor
Unknown
Orbital elements
Apogee altitude
1,461.443 km
Perigee altitude
957.99 km
Semi-major axis
7,587.854 km
Eccentricity
0.03317
Inclination
67.2678°
RAAN
215.8273°
Arg. of periapsis
79.0919°
True anomaly
342.08005°
Mean anomaly
343.2226°
Eccentric anomaly
342.65596°
Mean motion
3.28371 °/min
Orbital period
109.63 mins
BSTAR
0.00093836
Loading maneuver chart data...
Computing Atmospheric mass density...

Documentation

Showing up to 5 results
|